Simultaneous Nadir Overpasses (SNOs) Predictions

Prediction of SNOs between GOES-15 and METOP-B Satellite Orbit:

Table of predicted SNOs for the next 14.0 days since TLE Epoch: 11/19/2022
Index Date Time (GOES-15) GOES-15 Lat,Lon METOP-B Lat,Lon Distance(km) Time Diff (sec)
1 11/19/2022 06:12:31 0.20,-128.23 -0.24,-130.21 225.25 80
2 11/20/2022 05:49:12 0.21,-128.21 0.87,-125.21 341.74 80
3 11/21/2022 18:08:03 -0.20,-128.18 0.16,-129.77 181.35 80
4 11/22/2022 17:50:03 -0.20,-128.16 -0.96,-124.77 385.81 80
5 11/24/2022 06:09:03 0.19,-128.13 -0.09,-129.36 140.52 80
6 11/25/2022 05:45:43 0.19,-128.10 1.03,-124.37 425.45 80
7 11/26/2022 18:04:35 -0.18,-128.04 0.00,-128.92 99.86 80
8 11/27/2022 17:46:35 -0.18,-128.01 -1.12,-123.93 466.35 80
9 11/29/2022 06:05:34 0.17,-127.98 0.08,-128.51 60.50 80
10 12/01/2022 18:01:05 -0.16,-127.88 -0.12,-128.06 21.11 80
